Vertical_Velocity
1 -5 -2 -2 -1 -1 -1 1 -0 -2 -2 1 -1 -0 -2 -2 6 2 -1 -0 -3 -10 7 3 -8 1 3 7 2 1 -1 -1 -0 -1 -2 -4 -3 -2 -1 1 1 -2 0 4
-8 -3 -4 -0 0 1 1 0 -2 -3 -1 1 -1 -4 -1 0 -11 -10 -4 -0 -3 1 2 0 3 -1 -1 -1 3 1 2 1 -1 1 1 1 1 -1 1 0 2 -0 -1 1
-3 -8 0 0 -1 1 -0 -2 -1 -3 -0 -2 -1 -5 -2 -2 5 8 2 5 5 -5 -2 -6 1 -3 3 -4 -5 -2 -1 2 1 0 5 0 3 1 -2 -4 -3 -1 -2 1
-2 -4 0 0 0 -2 1 -2 1 1 -2 -3 -3 -6 -2 -1 -0 1 1 -2 3 -1 -4 8 -1 2 -11 0 1 -1 2 -3 2 2 0 -1 -2 -1 -2 -1 1 0 1 -1
-17 0 0 1 -4 -0 -11 1 -0 -0 -1 -2 -2 -6 -12 -1 -1 -1 -3 -2 -7 -7 5 -4 -3 -1 -2 -4 -0 -3 -0 4 2 0 0 1 -0 -0 3 2 0 -0 2 2
-4 1 -1 -3 -0 -1 -2 1 -3 -2 -2 -5 -1 -4 -8 -1 1 -2 -2 -5 -1 6 -3 -1 2 2 -1 5 3 -0 -1 -1 1 3 -1 -1 1 1 1 -0 -1 -3 -0 4
-5 -3 -1 -1 -0 -3 -2 -5 -4 -6 -6 -7 -0 -3 -11 -2 -1 -1 -1 2 3 1 3 -2 -3 -4 -1 -6 -3 0 -1 -2 -2 1 1 -1 -1 -1 2 2 2 1 -1 -3
-2 -18 -2 -1 -6 -5 -2 -7 -8 -5 -3 -4 -0 -3 -16 -1 -0 -1 3 5 -2 -9 -1 -3 4 -3 -2 1 1 -0 -3 -3 -1 -0 -1 -0 2 -2 -2 -0 1 1 0 -1
-3 -7 -2 0 -0 -8 -4 -2 -8 -6 -1 -4 -2 -7 -9 -1 -1 -3 -1 1 -1 1 3 -3 -5 1 -0 -3 -4 -2 -2 -1 -1 3 1 -6 0 -2 -3 0 -1 -0 1 1
-5 -5 -3 -3 -0 0 -8 -6 -8 -5 -4 -0 -2 -1 -7 -2 -1 -2 -4 -3 3 2 1 4 -1 -1 -1 1 3 2 -1 -2 5 0 -2 -1 1 -0 -1 0 -3 -2 1 0
-3 -7 -11 -5 -2 -4 -1 -1 -4 -8 -4 -6 -2 -10 -6 -2 -1 -1 -3 -1 -0 -2 1 6 -1 -2 3 2 -0 3 0 1 -3 2 3 -1 -3 1 -2 2 1 -2 -0 0
-6 -5 -1 -10 -4 -1 -2 -3 -3 -7 -3 -1 -4 -14 -1 -2 -3 1 -3 -3 1 2 -4 -1 0 1 -1 -1 -1 1 -0 -0 2 2 1 -0 2 1 2 1 -2 2 -2 1
-6 -3 -3 -18 -14 -2 -0 -0 -1 -1 -3 -2 -6 -14 -1 0 0 -2 -0 3 -1 -2 2 -4 -2 -4 -3 -2 -1 -2 -4 -2 2 -0 -1 2 0 -1 1 -1 1 0 -1 -1
-5 -1 -9 -11 -12 -4 1 1 0 -4 -3 -3 -5 -3 -2 -2 -1 -3 -1 3 3 -5 5 1 -4 -1 -2 0 -1 -0 -2 1 3 2 -0 -1 -1 -0 0 -1 1 -3 -1 -0
-10 -3 -0 -1 -1 0 -1 0 0 -1 -3 -7 -9 -2 -5 -4 0 1 6 9 -11 5 -7 3 -4 -6 1 6 4 -0 -1 -1 2 2 -1 -6 3 3 4 1 1 2 1 3
-1 -3 -0 1 1 0 -1 -0 -0 -0 0 0 0 -2 -0 3 2 -1 6 -0 -1 3 -1 10 3 2 2 5 1 9 4 1 2 0 -7 6 2 2 -1 -1 -1 0 5 28
-2 -3 -2 -3 -0 -0 -7 1 1 1 -0 -1 -1 -7 -0 1 1 2 3 -1 4 -1 -0 1 -0 -1 2 4 1 -4 -2 9 2 -1 5 -1 2 2 -2 3 0 -1 2 10
-2 -2 -1 -0 -2 -6 -6 1 -3 -3 2 -1 -1 1 1 1 6 1 4 2 3 3 4 1 2 2 -1 -0 4 2 -1 2 2 1 6 2 3 2 2 2 2 3 3 1
-2 -2 -3 -6 -1 0 1 -2 0 -4 1 3 2 2 4 3 -2 -4 1 -0 1 2 -0 -0 2 4 -2 -1 1 -1 4 7 3 1 1 3 4 5 3 -0 -0 9 6 -3
-2 -2 -10 -1 -5 -4 -8 -1 5 -0 -6 1 1 3 1 -0 -6 -3 2 6 4 8 4 5 3 4 -2 -3 -1 -2 -2 4 6 5 1 4 5 2 -1 3 8 12 1 2
-2 -2 -3 0 -0 -3 2 -2 3 -6 -16 -1 3 1 -2 -6 3 12 13 5 6 -1 2 6 -4 -5 1 -1 -3 -1 0 0 -1 -2 4 7 5 5 7 7 7 6 2 1
-2 -2 -0 -2 -3 -2 -0 -4 -7 -5 5 2 4 6 4 3 7 6 4 -1 -1 -3 -9 -5 0 3 3 -2 -4 -6 -4 -0 -1 -1 1 -4 1 4 -1 1 6 -2 2 -0
-10 -3 -6 -7 -3 1 17 5 12 6 4 11 -2 1 4 16 -8 -4 -4 9 -1 -1 -3 -2 -1 -2 0 2 -4 -2 -2 -3 -6 -5 -4 -7 -1 -4 -5 2 6 5 6 5
-2 1 -5 -12 -4 4 4 7 -0 5 -1 7 4 2 -0 5 -1 -2 -10 -15 4 -5 -7 -3 -1 -2 -2 -1 0 2 -1 2 -3 -7 -6 -2 -1 4 6 15 17 13 22 22
1 -4 -1 5 4 1 -1 2 5 2 4 -4 -3 -3 1 -1 -2 2 -9 1 -2 -2 1 2 -0 1 2 0 -0 -1 0 -2 -1 -4 -2 -2 -2 2 3 1 -27 -12 -0 -13
3 -0 -2 -1 7 -9 5 6 7 -1 -3 -7 12 -5 -5 -9 -7 -4 -3 -6 -1 1 -1 -2 -2 -1 -1 -1 -1 -0 -2 -1 -4 -2 -4 -1 3 7 1 -10 -6 2 -57 -56
Height
1512 1519 1525 1518 1518 1519 1524 1527 1529 1517 1507 1510 1512 1513 1511 1510 1514 1515 1514 1515 1516 1518 1519 1525 1529 1531 1537 1540 1542 1545 1548 1551 1554 1556 1558 1560 1561 1564 1565 1566 1568 1570 1571 1573
1519 1525 1512 1514 1516 1518 1521 1526 1526 1516 1508 1512 1513 1514 1505 1506 1502 1504 1506 1507 1510 1513 1516 1519 1524 1530 1531 1535 1540 1543 1545 1549 1551 1554 1556 1559 1560 1562 1564 1566 1567 1569 1570 1572
1524 1510 1508 1511 1514 1518 1516 1523 1520 1518 1510 1511 1516 1521 1514 1504 1500 1508 1508 1508 1509 1508 1511 1514 1519 1525 1526 1531 1535 1539 1543 1546 1549 1552 1555 1557 1559 1560 1561 1563 1565 1567 1568 1570
1516 1506 1507 1511 1515 1513 1523 1504 1506 1508 1520 1537 1519 1548 1516 1512 1503 1502 1505 1506 1508 1508 1507 1509 1514 1519 1522 1526 1531 1536 1540 1543 1546 1549 1552 1553 1555 1556 1558 1560 1563 1565 1566 1568
1517 1507 1510 1513 1511 1509 1515 1502 1505 1506 1521 1525 1524 1539 1523 1513 1513 1508 1505 1502 1501 1499 1501 1505 1510 1514 1518 1523 1527 1531 1536 1540 1543 1546 1548 1550 1552 1554 1556 1558 1560 1563 1564 1566
1509 1506 1507 1507 1504 1506 1503 1503 1511 1521 1531 1553 1536 1539 1535 1520 1515 1511 1503 1501 1497 1496 1498 1501 1506 1512 1515 1519 1524 1528 1532 1537 1541 1543 1545 1547 1548 1551 1553 1555 1556 1559 1561 1563
1513 1508 1504 1505 1509 1502 1504 1521 1555 1555 1560 1560 1541 1542 1530 1512 1508 1506 1502 1497 1493 1492 1493 1497 1500 1504 1509 1513 1519 1524 1528 1532 1536 1539 1541 1544 1546 1549 1550 1552 1553 1555 1557 1559
1532 1535 1504 1499 1504 1509 1509 1516 1549 1561 1571 1554 1538 1545 1524 1505 1503 1504 1503 1497 1495 1494 1495 1497 1497 1501 1506 1510 1515 1520 1524 1528 1532 1535 1537 1540 1542 1544 1547 1549 1551 1552 1554 1556
1534 1527 1498 1496 1497 1501 1509 1521 1508 1540 1544 1553 1551 1535 1513 1504 1502 1500 1498 1497 1495 1494 1495 1494 1497 1498 1500 1504 1511 1516 1521 1525 1528 1531 1533 1536 1539 1541 1542 1545 1547 1549 1550 1552
1507 1523 1499 1494 1495 1499 1503 1505 1525 1537 1558 1559 1552 1549 1539 1510 1507 1502 1498 1494 1492 1493 1492 1491 1492 1495 1497 1501 1507 1513 1516 1520 1523 1527 1529 1532 1535 1537 1539 1542 1543 1545 1547 1548
1501 1512 1508 1495 1501 1505 1507 1515 1524 1531 1543 1560 1566 1550 1511 1509 1506 1504 1497 1493 1490 1489 1487 1488 1488 1492 1495 1499 1504 1508 1511 1516 1520 1523 1525 1528 1530 1532 1535 1537 1540 1541 1544 1545
1490 1506 1519 1511 1491 1491 1494 1505 1514 1533 1542 1550 1550 1539 1496 1499 1496 1495 1494 1493 1491 1488 1486 1487 1489 1491 1494 1497 1500 1504 1508 1511 1515 1519 1522 1523 1526 1529 1531 1532 1535 1537 1538 1540
1485 1508 1526 1517 1504 1493 1495 1498 1503 1516 1527 1544 1550 1538 1495 1494 1491 1492 1494 1492 1492 1489 1487 1489 1491 1493 1494 1495 1498 1500 1503 1506 1509 1513 1517 1520 1522 1523 1526 1528 1529 1531 1533 1534
1472 1500 1505 1522 1509 1494 1495 1493 1498 1506 1526 1533 1527 1509 1499 1494 1491 1491 1496 1495 1491 1486 1486 1489 1492 1493 1494 1494 1496 1498 1500 1502 1505 1507 1511 1514 1516 1518 1521 1524 1525 1526 1527 1528
1467 1492 1494 1489 1486 1486 1486 1487 1492 1499 1499 1511 1502 1509 1492 1488 1493 1495 1497 1495 1493 1490 1490 1490 1493 1494 1494 1494 1495 1496 1497 1499 1501 1504 1507 1508 1511 1514 1517 1520 1521 1522 1522 1524
1468 1485 1486 1488 1487 1483 1492 1492 1489 1494 1494 1494 1500 1499 1489 1492 1495 1499 1499 1496 1499 1495 1494 1494 1493 1494 1494 1495 1495 1495 1495 1496 1498 1499 1501 1504 1507 1509 1512 1516 1517 1517 1517 1515
1471 1484 1493 1504 1485 1490 1506 1503 1500 1502 1501 1496 1501 1490 1489 1495 1500 1502 1501 1504 1503 1501 1498 1495 1493 1494 1493 1492 1491 1491 1491 1493 1494 1495 1497 1500 1502 1504 1507 1511 1512 1512 1513 1518
1471 1483 1491 1504 1496 1524 1506 1497 1499 1501 1503 1498 1490 1487 1495 1498 1506 1509 1510 1509 1505 1503 1499 1496 1496 1494 1493 1491 1489 1486 1487 1489 1491 1493 1494 1496 1498 1499 1502 1506 1507 1509 1511 1513
1457 1475 1500 1507 1527 1509 1502 1497 1499 1502 1513 1503 1500 1494 1497 1498 1501 1511 1512 1512 1510 1507 1504 1503 1500 1497 1495 1492 1489 1487 1489 1490 1491 1492 1493 1494 1494 1495 1497 1500 1502 1503 1506 1507
1459 1463 1479 1507 1513 1527 1503 1495 1496 1498 1526 1511 1505 1502 1500 1498 1515 1520 1518 1514 1513 1510 1508 1505 1500 1495 1495 1493 1490 1490 1489 1490 1493 1493 1493 1493 1492 1491 1492 1494 1496 1497 1501 1503
1482 1483 1494 1505 1514 1508 1499 1497 1495 1512 1527 1513 1507 1507 1506 1511 1519 1518 1513 1509 1508 1508 1507 1503 1501 1502 1499 1495 1493 1491 1491 1491 1491 1490 1490 1491 1490 1489 1489 1489 1490 1493 1496 1497
1490 1496 1504 1508 1514 1514 1501 1496 1501 1509 1513 1514 1514 1514 1512 1513 1517 1517 1515 1511 1510 1507 1507 1510 1509 1505 1500 1497 1496 1494 1492 1490 1488 1488 1488 1488 1488 1487 1487 1486 1484 1486 1488 1488
1499 1496 1501 1508 1522 1516 1507 1505 1510 1514 1514 1515 1512 1514 1517 1504 1511 1516 1517 1515 1510 1511 1511 1510 1509 1507 1505 1502 1498 1496 1493 1489 1486 1484 1484 1483 1483 1482 1482 1481 1481 1482 1482 1483
1490 1489 1498 1504 1522 1518 1515 1514 1515 1515 1516 1517 1517 1517 1517 1511 1512 1514 1517 1520 1517 1516 1517 1515 1511 1509 1507 1504 1501 1498 1494 1491 1486 1482 1479 1478 1477 1478 1477 1479 1480 1482 1487 1490
1500 1496 1505 1511 1516 1514 1518 1519 1521 1520 1519 1519 1519 1519 1518 1516 1518 1513 1520 1520 1516 1517 1516 1511 1507 1506 1504 1501 1498 1496 1493 1490 1486 1482 1478 1474 1473 1472 1470 1467 1466 1475 1482 1483
1506 1506 1510 1518 1514 1516 1525 1524 1523 1520 1522 1523 1520 1519 1524 1523 1521 1518 1517 1516 1515 1511 1508 1504 1502 1500 1498 1497 1495 1492 1490 1488 1484 1480 1477 1475 1472 1470 1467 1466 1464 1460 1463 1468